Home   Weather   Geneva   Past weeks
Flag for Switzerland

Past Weather in Geneva, Geneva, Switzerland — Yesterday and Last 2 Weeks

Now
56 °F

Cool.


Feels Like: 57 °F
Forecast: 63 / 53 °F
Wind: 3 mph from Northeast

Location: Geneve-Cointrin

Current Time: Oct 22, 2019 at 1:26:46 am

Latest Report: Oct 22, 2019 at 12:00 am


Visibility: N/A

Pressure: 30.20 "Hg

Humidity: 96%

Dew Point: 55 °F

Location of GenevaLocation

Past Weather in Geneva — Graph

°F

Geneva Temperature Yesterday

Maximum temperature yesterday: 58 °F (at 3:00 pm)
Minimum temperature yesterday: 56 °F (at 11:00 pm)
Average temperature yesterday: 57 °F

High & Low Weather Summary for the Past Weeks

 TemperatureHumidityPressure
High74 °F (Oct 13, 5:00 pm)99% (Oct 18, 6:00 am)30.27 "Hg (Oct 18, 6:00 am)
Low40 °F (Oct 11, 6:00 am)43% (Oct 14, 4:00 pm)29.73 "Hg (Oct 20, 5:00 pm)
Average57 °F82%30.01 "Hg
* Reported Oct 7 12:00 am — Oct 22 12:00 am, Geneva. Weather by CustomWeather, © 2019

Note: Actual official high and low records may vary slightly from our data, if they occured in-between our weather recording intervals... More about our weather records

Advertising

Geneva Weather History for the Previous 24 Hours

Scroll right to see more
 ConditionsComfort  
Time TempWeatherWind HumidityBarometerVisibility
12:00 am
Tue, Oct 22
56 °FCool.3 mph96%30.20 "HgN/A
11:00 pm
Mon, Oct 21
56 °FFog.2 mph96%30.19 "Hg9 mi
10:00 pm56 °FCool.3 mph96%30.18 "HgN/A
9:00 pm57 °FCool.2 mph96%30.19 "HgN/A
8:00 pm57 °FLight rain. Low clouds.3 mph97%30.17 "Hg9 mi
7:00 pm57 °FCool.2 mph95%30.14 "HgN/A
6:00 pm58 °FCool.1 mph95%30.14 "HgN/A
5:00 pm58 °FLight rain. Low clouds.2 mph93%30.14 "Hg6 mi
4:00 pm58 °FCool.2 mph94%30.14 "HgN/A
3:00 pm58 °FCool.1 mph91%30.12 "HgN/A
2:00 pm58 °FLight rain. Low clouds.2 mph92%30.11 "Hg11 mi
1:00 pm58 °FCool.2 mph94%30.11 "HgN/A
12:00 pm58 °FCool.2 mph94%30.11 "HgN/A
11:00 am58 °FLight rain. Low clouds.2 mph93%30.09 "Hg4 mi
10:00 am58 °FCool.1 mph94%30.07 "HgN/A
9:00 am57 °FCool.2 mph96%30.05 "HgN/A
8:00 am57 °FOvercast.2 mph95%30.01 "Hg12 mi
7:00 am57 °FCool.3 mph95%29.98 "HgN/A
6:00 am58 °FCool.5 mph93%29.98 "HgN/A
5:00 am58 °FCool.8 mph92%29.97 "HgN/A
4:00 am58 °FCool.2 mph96%29.95 "HgN/A
3:00 am58 °FCool.7 mph93%29.95 "HgN/A
2:00 am58 °FCool.8 mph93%29.94 "HgN/A
1:00 am57 °FCool.3 mph97%29.91 "HgN/A
Weather by CustomWeather, © 2019

See weather overview